TimeCDT,TemperatureF,Dew PointF,Humidity,Sea Level PressureIn,VisibilityMPH,Wind Direction,Wind SpeedMPH,Gust SpeedMPH,PrecipitationIn,Events,Conditions,WindDirDegrees,DateUTC
12:15 AM,70.3,68.2,93,29.88,10.0,Calm,Calm,-,N/A,,Clear,0,2013-08-07 05:15:00
12:35 AM,70.0,68.5,95,29.88,10.0,Calm,Calm,-,N/A,,Clear,0,2013-08-07 05:35:00
12:55 AM,69.6,68.0,95,29.89,10.0,Calm,Calm,-,N/A,,Clear,0,2013-08-07 05:55:00
1:15 AM,68.7,67.3,95,29.89,10.0,West,4.6,-,N/A,,Clear,270,2013-08-07 06:15:00
1:35 AM,68.4,67.3,96,29.89,10.0,West,3.5,-,N/A,,Clear,280,2013-08-07 06:35:00
1:55 AM,68.0,67.3,98,29.89,10.0,WNW,3.5,-,N/A,,Clear,290,2013-08-07 06:55:00
2:15 AM,68.0,67.1,97,29.89,10.0,WNW,6.9,-,N/A,,Clear,290,2013-08-07 07:15:00
2:35 AM,67.3,66.4,97,29.88,10.0,WNW,4.6,-,N/A,,Clear,300,2013-08-07 07:35:00
2:55 AM,66.6,66.2,99,29.88,10.0,West,4.6,-,N/A,,Clear,280,2013-08-07 07:55:00
3:15 AM,66.6,66.2,99,29.87,10.0,WNW,3.5,-,N/A,,Clear,300,2013-08-07 08:15:00
3:35 AM,67.6,67.3,99,29.88,10.0,WNW,4.6,-,N/A,,Clear,300,2013-08-07 08:35:00
3:55 AM,69.3,68.0,96,29.87,10.0,NNW,6.9,-,N/A,,Clear,330,2013-08-07 08:55:00
4:15 AM,69.3,67.3,93,29.88,10.0,NNW,6.9,-,N/A,,Clear,330,2013-08-07 09:15:00
4:35 AM,68.9,66.2,91,29.89,10.0,NW,5.8,-,N/A,,Clear,320,2013-08-07 09:35:00
4:55 AM,67.1,65.5,95,29.89,10.0,NW,5.8,-,N/A,,Clear,310,2013-08-07 09:55:00
5:15 AM,66.4,65.1,96,29.90,10.0,NW,4.6,-,N/A,,Clear,310,2013-08-07 10:15:00
5:35 AM,67.1,64.6,92,29.90,10.0,NNW,5.8,-,N/A,,Clear,330,2013-08-07 10:35:00
5:55 AM,66.7,64.4,92,29.91,10.0,NW,4.6,-,N/A,,Clear,320,2013-08-07 10:55:00
6:15 AM,66.2,63.9,92,29.91,10.0,NNW,4.6,-,N/A,,Clear,330,2013-08-07 11:15:00
6:35 AM,66.0,63.5,92,29.92,10.0,NNW,4.6,-,N/A,,Clear,330,2013-08-07 11:35:00
6:55 AM,66.0,63.5,92,29.93,10.0,NNW,5.8,-,N/A,,Clear,330,2013-08-07 11:55:00
7:15 AM,66.2,63.5,91,29.94,10.0,NNW,3.5,-,N/A,,Clear,330,2013-08-07 12:15:00
7:35 AM,66.9,63.5,89,29.96,10.0,Calm,Calm,-,N/A,,Clear,0,2013-08-07 12:35:00
7:55 AM,66.4,63.9,92,29.97,10.0,Calm,Calm,-,N/A,,Clear,0,2013-08-07 12:55:00
8:15 AM,69.3,63.9,83,29.97,10.0,North,3.5,-,N/A,,Clear,360,2013-08-07 13:15:00
8:35 AM,69.8,63.5,80,29.98,10.0,North,4.6,-,N/A,,Clear,350,2013-08-07 13:35:00
8:55 AM,70.5,63.7,79,29.98,10.0,Calm,Calm,-,N/A,,Clear,0,2013-08-07 13:55:00
9:15 AM,71.8,63.7,76,29.99,10.0,North,3.5,-,N/A,,Clear,360,2013-08-07 14:15:00
9:35 AM,72.5,64.2,75,29.99,10.0,North,4.6,-,N/A,,Clear,350,2013-08-07 14:35:00
9:55 AM,73.6,64.0,72,30.00,10.0,NNW,5.8,-,N/A,,Clear,340,2013-08-07 14:55:00
10:15 AM,74.3,63.1,68,30.00,10.0,North,3.5,-,N/A,,Clear,350,2013-08-07 15:15:00
10:35 AM,76.3,64.4,67,30.00,10.0,NNW,5.8,-,N/A,,Clear,340,2013-08-07 15:35:00
10:55 AM,75.7,64.6,68,30.01,10.0,NNW,4.6,-,N/A,,Clear,330,2013-08-07 15:55:00
11:15 AM,75.6,63.3,66,30.01,10.0,NNE,3.5,-,N/A,,Clear,20,2013-08-07 16:15:00
11:35 AM,77.0,62.2,60,30.01,10.0,North,4.6,-,N/A,,Clear,350,2013-08-07 16:35:00
11:55 AM,77.7,62.4,59,30.01,10.0,North,4.6,-,N/A,,Clear,10,2013-08-07 16:55:00
12:15 PM,78.3,62.1,57,30.02,10.0,ENE,4.6,-,N/A,,Clear,60,2013-08-07 17:15:00
12:35 PM,79.3,62.4,56,30.01,10.0,NE,3.5,-,N/A,,Clear,50,2013-08-07 17:35:00
12:55 PM,79.3,62.8,57,30.01,10.0,North,5.8,-,N/A,,Clear,350,2013-08-07 17:55:00
1:15 PM,79.2,62.4,56,30.01,10.0,North,8.1,-,N/A,,Clear,350,2013-08-07 18:15:00
1:35 PM,80.1,63.0,56,30.01,10.0,NNW,4.6,-,N/A,,Clear,340,2013-08-07 18:35:00
1:55 PM,80.8,64.4,57,30.01,10.0,North,4.6,-,N/A,,Clear,360,2013-08-07 18:55:00
2:15 PM,80.4,63.7,57,30.01,10.0,North,4.6,-,N/A,,Clear,350,2013-08-07 19:15:00
2:35 PM,80.8,63.5,56,30.01,10.0,North,5.8,-,N/A,,Clear,10,2013-08-07 19:35:00
2:55 PM,80.6,62.4,54,30.00,10.0,NNE,3.5,9.2,N/A,,Clear,20,2013-08-07 19:55:00
3:15 PM,81.3,63.5,55,30.00,10.0,NNE,4.6,-,N/A,,Clear,20,2013-08-07 20:15:00
3:35 PM,81.3,63.7,55,30.01,10.0,NE,4.6,-,N/A,,Scattered Clouds,40,2013-08-07 20:35:00
3:55 PM,82.6,65.8,57,30.01,10.0,NNE,6.9,-,0.03,,Scattered Clouds,30,2013-08-07 20:55:00
4:15 PM,-9999,-9999,N/A,-9999,-9999.0,North,-9999.0,-,N/A,,Unknown,0,2013-08-07 21:15:00
4:35 PM,81.3,64.4,56,30.00,10.0,ENE,4.6,-,N/A,,Clear,60,2013-08-07 21:35:00
4:55 PM,81.7,65.3,57,29.99,10.0,Calm,Calm,-,N/A,,Clear,0,2013-08-07 21:55:00
5:15 PM,80.8,64.4,57,29.99,10.0,Calm,Calm,-,N/A,,Clear,0,2013-08-07 22:15:00
5:35 PM,81.5,65.5,58,29.99,10.0,NNW,3.5,-,N/A,,Clear,340,2013-08-07 22:35:00
5:55 PM,81.0,65.1,58,29.99,10.0,NNW,3.5,-,N/A,,Clear,330,2013-08-07 22:55:00
6:15 PM,80.6,64.4,58,29.99,10.0,North,3.5,-,N/A,,Clear,10,2013-08-07 23:15:00
6:35 PM,80.2,64.9,59,29.99,10.0,NNW,3.5,-,N/A,,Clear,340,2013-08-07 23:35:00
6:55 PM,79.7,65.5,62,29.99,10.0,NNW,3.5,-,N/A,,Clear,340,2013-08-07 23:55:00
7:15 PM,79.0,65.5,63,29.99,10.0,North,3.5,-,N/A,,Clear,350,2013-08-08 00:15:00
7:35 PM,77.7,65.5,66,29.99,10.0,Calm,Calm,-,N/A,,Clear,0,2013-08-08 00:35:00
7:55 PM,77.4,66.4,69,29.99,10.0,Calm,Calm,-,N/A,,Clear,0,2013-08-08 00:55:00
8:15 PM,76.6,65.1,67,29.99,10.0,NE,3.5,-,N/A,,Clear,40,2013-08-08 01:15:00
8:35 PM,76.1,63.7,65,29.99,10.0,NE,3.5,-,N/A,,Clear,40,2013-08-08 01:35:00
8:55 PM,75.4,64.0,68,30.00,10.0,NE,4.6,-,N/A,,Clear,40,2013-08-08 01:55:00
9:15 PM,74.8,64.0,69,30.01,10.0,NNE,3.5,-,N/A,,Clear,30,2013-08-08 02:15:00
9:35 PM,74.3,64.4,71,30.02,10.0,NE,4.6,-,N/A,,Clear,40,2013-08-08 02:35:00
9:55 PM,73.6,64.4,73,30.01,10.0,NE,5.8,-,N/A,,Clear,50,2013-08-08 02:55:00
10:15 PM,72.3,64.6,77,30.02,10.0,ENE,3.5,-,N/A,,Clear,70,2013-08-08 03:15:00
10:35 PM,71.8,64.4,77,30.01,10.0,ENE,4.6,-,N/A,,Scattered Clouds,60,2013-08-08 03:35:00
10:55 PM,71.1,64.4,79,30.01,10.0,ENE,4.6,-,N/A,,Clear,70,2013-08-08 03:55:00
11:15 PM,70.3,64.2,81,30.01,10.0,East,4.6,-,N/A,,Clear,80,2013-08-08 04:15:00
11:35 PM,70.2,64.2,81,30.02,10.0,ENE,4.6,-,N/A,,Clear,70,2013-08-08 04:35:00
11:55 PM,68.9,64.2,85,30.02,10.0,East,3.5,-,N/A,,Clear,100,2013-08-08 04:55:00